[[{"header":{"parameterUnit":"m.s-1","parameterCategory":1,"la1":30.2991,"la2":30.254,"lo1":-89.0895,"lo2":-89.0444,"dx":0.0017,"dy":0.0017,"nx":28,"ny":28,"refTime":"2022-11-28T15:00:00:Z","depth":0,"parameterNumber":2,"parameterNumberName":"U-component_of_WINDS"},"data":[0,0,0,0,0,0,0,0,0,0,0,0,0,0,0,0,0,0,0,0,0,0,0,0,0,0,0,0,0,0,0,0,0,0,0,0,0,0,0,0,0,0,0,0,0,0,0,0,0,0,0,0,0,0,0,0,0,0,-2.5787,-2.5789,0,-2.5901,-2.5903,-2.5904,-2.5946,-2.5945,-2.5945,-2.5945,-2.6063,-2.6066,-2.607,0,0,0,0,0,0,0,0,0,0,0,0,0,-2.5607,-2.561,-2.5787,-2.5789,-2.579,-2.5901,-2.5903,-2.5904,-2.5946,-2.5945,-2.5945,-2.5944,-2.6061,-2.6066,-2.607,0,0,0,0,0,0,0,0,0,0,0,0,0,-2.57,-2.5611,-2.5787,-2.5824,-2.5829,-2.5901,-2.5903,-2.5905,-2.5946,-2.5945,-2.5945,-2.5944,-2.606,-2.6065,-2.607,-2.6114,0,0,-2.6086,-2.6089,0,0,0,0,0,0,0,0,-2.5694,-2.5706,-2.5817,-2.5822,-2.5827,-2.5909,-2.5883,-2.5975,-2.5946,-2.5901,-2.5945,-2.5944,-2.6012,-2.6021,-2.6044,-2.612,-2.6125,-2.6087,-2.609,-2.6092,-2.6094,0,0,0,0,0,0,0,-2.5688,-2.5702,-2.5833,-2.5819,-2.5825,-2.5836,-2.5848,-2.59,-2.5959,-2.5905,-2.5909,-2.5921,-2.6015,-2.6039,-2.6047,-2.6127,-2.6087,-2.6091,-2.6095,-2.6097,-2.6246,-2.6246,0,0,0,0,0,0,-2.5675,-2.5696,-2.5829,-2.5836,-2.5758,-2.5839,-2.5853,-2.5883,-2.5958,-2.5969,-2.5922,-2.5923,-2.603,-2.6041,-2.6051,-2.6108,-2.6092,-2.6097,-2.61,-2.6245,-2.6246,-2.6247,0,0,0,0,0,0,-2.5671,-2.5687,-2.5824,-2.5767,-2.5785,-2.5843,-2.5876,-2.5886,-2.591,-2.5971,-2.5981,-2.5936,-2.603,-2.6044,-2.6099,-2.6113,-2.61,-2.6104,-2.6244,-2.6245,-2.6246,-2.6221,0,0,0,0,0,0,-2.5666,-2.5685,-2.5702,-2.5767,-2.5788,-2.5869,-2.5877,-2.5888,-2.5919,-2.5921,-2.5987,-2.5997,-2.6031,-2.609,-2.6104,-2.612,-2.6108,-2.6243,-2.6244,-2.6246,-2.6221,-2.6221,-2.6222,0,0,0,0,0,-2.5659,-2.569,-2.5702,-2.5718,-2.581,-2.587,-2.5882,-2.592,-2.592,-2.5937,-2.5977,-2.5995,-2.6109,-2.6096,-2.6111,-2.6129,-2.6242,-2.6244,-2.6246,-2.6221,-2.6221,-2.6222,0,0,0,0,0,0,-2.5625,-2.5699,-2.5713,-2.5766,-2.5811,-2.5876,-2.59,-2.5919,-2.5965,-2.5966,-2.6011,-2.6026,-2.6077,-2.6109,-2.6092,-2.6176,-2.6177,-2.6182,-2.6153,-2.6154,-2.6154,-2.6145,-2.6113,0,0,0,0,0,-2.5624,-2.5665,-2.5728,-2.5769,-2.5791,-2.5841,-2.5869,-2.5894,-2.5942,-2.5962,-2.6005,-2.6052,-2.6098,-2.6128,-2.6174,-2.6226,-2.6241,-2.6246,-2.6247,-2.6247,-2.625,-2.628,-2.6283,-2.6253,-2.6253,-2.6253,0,0,-2.5621,-2.5667,-2.569,-2.5763,-2.5801,-2.5843,-2.5857,-2.5901,-2.5933,-2.5969,-2.6023,-2.6056,-2.6112,-2.6165,-2.6191,-2.6193,-2.6262,-2.6249,-2.6248,-2.6252,-2.6283,-2.6285,-2.6288,-2.6254,-2.6254,-2.6253,0,0,-2.5638,-2.5677,-2.5715,-2.5753,-2.581,-2.5844,-2.5853,-2.5916,-2.5939,-2.5994,-2.6022,-2.6061,-2.614,-2.6179,-2.6208,-2.6241,-2.626,-2.6255,-2.6257,-2.6286,-2.6288,-2.6291,-2.6302,-2.6306,-2.6259,-2.6259,-2.6259,0,-2.5628,-2.5692,-2.5733,-2.5776,-2.5807,-2.5841,-2.5881,-2.5915,-2.5985,-2.6006,-2.6007,-2.6108,-2.6148,-2.6211,-2.6219,-2.6242,-2.6254,-2.6247,-2.6285,-2.6287,-2.629,-2.6302,-2.6306,-2.6258,-2.6258,-2.6258,-2.6258,0,-2.5677,-2.5722,-2.5746,-2.5812,-2.5846,-2.5887,-2.5934,-2.5964,-2.5987,-2.602,-2.6077,-2.6126,-2.6182,-2.62,-2.6222,-2.6266,-2.6266,-2.6276,-2.6278,-2.6291,-2.6303,-2.6308,-2.6256,-2.6257,-2.6257,-2.6257,0,0,-2.5675,-2.5763,-2.5771,-2.5801,-2.5867,-2.5903,-2.5946,-2.6001,-2.6026,-2.6073,-2.6111,-2.6178,-2.6187,-2.6221,-2.6249,-2.6274,-2.6297,-2.6281,-2.6283,-2.6282,-2.6349,-2.6341,-2.6345,-2.631,-2.6311,-2.6312,-2.6344,0,-2.57,-2.5778,-2.5816,-2.5877,-2.5919,-2.5952,-2.599,-2.6035,-2.6068,-2.6109,-2.6146,-2.6192,-2.6201,-2.6222,-2.6249,-2.6288,-2.6311,-2.6287,-2.6346,-2.6347,-2.633,-2.6351,-2.6343,-2.637,-2.6349,-2.635,-2.635,0,-2.574,-2.5786,-2.5852,-2.5913,-2.5932,-2.5965,-2.6019,-2.6058,-2.611,-2.6132,-2.617,-2.6198,-2.6245,-2.6244,-2.631,-2.6293,-2.632,-2.6343,-2.6345,-2.6351,-2.6349,-2.6358,-2.638,-2.6384,-2.6358,-2.6357,-2.6357,0,-2.5731,-2.581,-2.586,-2.5885,-2.5958,-2.598,-2.6012,-2.6063,-2.6095,-2.6142,-2.6163,-2.6216,-2.6245,-2.6285,-2.6326,-2.6322,-2.6388,-2.6391,-2.6408,-2.6407,-2.642,-2.6419,-2.6446,-2.6438,-2.6438,-2.6438,-2.6438,0,-2.5755,-2.5794,-2.5857,-2.5887,-2.5931,-2.5975,-2.6018,-2.6053,-2.6098,-2.6136,-2.6169,-2.6204,-2.6256,-2.6298,-2.6331,-2.6381,-2.6394,-2.6413,-2.6421,-2.641,-2.6407,-2.6427,-2.6426,-2.6439,-2.6439,-2.6439,-2.6439,0,-2.5753,-2.5796,-2.5852,-2.5917,-2.5934,-2.5964,-2.602,-2.6051,-2.6086,-2.6134,-2.6148,-2.6203,-2.6254,-2.6299,-2.6367,-2.6389,-2.644,-2.645,-2.6422,-2.6426,-2.6441,-2.6439,-2.6482,-2.649,-2.6476,-2.6477,-2.6477,0,-2.5765,-2.5795,-2.5863,-2.5891,-2.5922,-2.5966,-2.5998,-2.6043,-2.6075,-2.6137,-2.616,-2.6214,-2.6259,-2.6339,-2.6386,-2.6438,-2.6449,-2.6461,-2.6457,-2.6445,-2.6449,-2.6447,-2.645,-2.6461,-2.646,-2.646,-2.646,0,-2.5781,-2.5802,-2.5846,-2.5898,-2.5936,-2.5979,-2.6023,-2.6044,-2.6098,-2.6132,-2.6185,-2.622,-2.6289,-2.6342,-2.6399,-2.6433,-2.6456,-2.6461,-2.6468,-2.6456,-2.6439,-2.6448,-2.6421,-2.646,-2.646,-2.646,-2.646,-2.646,-2.5787,-2.5815,-2.5868,-2.5916,-2.5954,-2.5995,-2.6028,-2.6067,-2.6111,-2.6171,-2.6195,-2.6248,-2.6301,-2.638,-2.6414,-2.6457,-2.6461,-2.647,-2.6473,-2.6475,-2.6472,-2.6432,-2.6468,-2.6468,-2.6468,-2.6468,-2.6468,0,-2.5805,-2.584,-2.5885,-2.5946,-2.5984,-2.6002,-2.6053,-2.6084,-2.613,-2.6177,-2.622,-2.6281,-2.6333,-2.6384,-2.6438,-2.6463,-2.6475,-2.6476,-2.6474,-2.6481,-2.6466,-2.6454,-2.6465,-2.6465,-2.6465,-2.6465,-2.6465,-2.6465,-2.5819,-2.5868,-2.5895,-2.5964,-2.5999,-2.6051,-2.6079,-2.6117,-2.6154,-2.622,-2.6263,-2.6296,-2.6345,-2.6403,-2.6452,-2.6465,-2.6484,-2.6482,-2.6498,-2.6483,-2.6482,-2.6482,-2.6471,-2.6485,-2.6485,-2.651,-2.651,-2.6511]},{"header":{"parameterUnit":"m.s-1","parameterCategory":1,"la1":30.2991,"la2":30.254,"lo1":-89.0895,"lo2":-89.0444,"dx":0.0017,"dy":0.0017,"nx":28,"ny":28,"refTime":"2022-11-28T15:00:00:Z","depth":0,"parameterNumber":3,"parameterNumberName":"V-component_of_WINDS"},"data":[0,0,0,0,0,0,0,0,0,0,0,0,0,0,0,0,0,0,0,0,0,0,0,0,0,0,0,0,0,0,0,0,0,0,0,0,0,0,0,0,0,0,0,0,0,0,0,0,0,0,0,0,0,0,0,0,0,0,5.0974,5.0975,0,5.1091,5.1092,5.1094,5.1102,5.1101,5.1099,5.1098,5.1217,5.1221,5.1225,0,0,0,0,0,0,0,0,0,0,0,0,0,5.0758,5.0762,5.0974,5.0975,5.0977,5.1091,5.1093,5.1094,5.1102,5.1101,5.1099,5.1098,5.1215,5.1221,5.1226,0,0,0,0,0,0,0,0,0,0,0,0,0,5.0861,5.0763,5.0974,5.0995,5.0998,5.1091,5.1093,5.1095,5.1103,5.1101,5.1099,5.1097,5.1214,5.122,5.1227,5.1306,0,0,5.1247,5.1249,0,0,0,0,0,0,0,0,5.0855,5.0869,5.099,5.0993,5.0997,5.108,5.106,5.1165,5.1103,5.1063,5.1098,5.1096,5.1173,5.1183,5.1209,5.1312,5.1317,5.1247,5.1251,5.1254,5.1256,0,0,0,0,0,0,0,5.0848,5.0864,5.102,5.0992,5.0996,5.0998,5.1011,5.108,5.1127,5.1066,5.1067,5.1081,5.1174,5.1202,5.1212,5.1319,5.1247,5.1253,5.1257,5.1259,5.1497,5.1499,0,0,0,0,0,0,5.0837,5.0858,5.1016,5.1024,5.092,5.1004,5.1018,5.1055,5.1126,5.1135,5.1082,5.1081,5.1192,5.1204,5.1216,5.1317,5.1254,5.126,5.1264,5.1495,5.1497,5.15,0,0,0,0,0,0,5.0832,5.0851,5.1012,5.0941,5.0962,5.101,5.1052,5.1059,5.1087,5.1139,5.1147,5.1103,5.1191,5.1207,5.1285,5.1321,5.1263,5.1269,5.1492,5.1495,5.1499,5.1518,0,0,0,0,0,0,5.0826,5.0849,5.0879,5.0942,5.0966,5.1078,5.1054,5.1062,5.1098,5.1097,5.116,5.1168,5.1191,5.1275,5.1291,5.1329,5.1274,5.1489,5.1493,5.1498,5.1515,5.1522,5.1529,0,0,0,0,0,5.0818,5.0879,5.0881,5.09,5.1005,5.108,5.1094,5.1119,5.1101,5.1133,5.1167,5.1166,5.1314,5.1283,5.1301,5.1342,5.1487,5.1492,5.1497,5.1512,5.1521,5.1528,0,0,0,0,0,0,5.0819,5.0888,5.089,5.0973,5.1021,5.1082,5.1122,5.1127,5.1181,5.1177,5.1206,5.122,5.1298,5.1327,5.1291,5.1425,5.1398,5.1408,5.1403,5.1412,5.1419,5.1412,5.128,0,0,0,0,0,5.0828,5.0885,5.0941,5.1009,5.1033,5.1074,5.1107,5.1123,5.1173,5.1193,5.1233,5.1282,5.134,5.1377,5.1433,5.1518,5.1534,5.1555,5.1562,5.1568,5.1576,5.1628,5.1639,5.1518,5.1517,5.1517,0,0,5.0849,5.0894,5.0927,5.1011,5.105,5.1108,5.109,5.1152,5.1196,5.1202,5.128,5.1311,5.1367,5.1451,5.1489,5.1477,5.1613,5.1575,5.1578,5.1584,5.1634,5.1646,5.1656,5.1521,5.152,5.152,0,0,5.0918,5.0956,5.1019,5.1059,5.1118,5.1145,5.116,5.1221,5.1242,5.132,5.1328,5.138,5.1478,5.1519,5.1553,5.164,5.1644,5.1657,5.1694,5.1744,5.1754,5.1763,5.1797,5.1809,5.1665,5.1665,5.1665,0,5.0936,5.1025,5.105,5.1113,5.1151,5.116,5.1225,5.1262,5.1337,5.1363,5.1348,5.1475,5.1513,5.1608,5.163,5.1655,5.1675,5.1651,5.175,5.1759,5.1768,5.1801,5.1814,5.1667,5.1666,5.1666,5.1666,0,5.1047,5.1108,5.1151,5.1225,5.1267,5.133,5.1366,5.1406,5.1418,5.1447,5.1528,5.1574,5.1642,5.1664,5.1675,5.1762,5.1754,5.1744,5.1719,5.1781,5.1813,5.1826,5.1669,5.1668,5.1668,5.1667,0,0,5.1119,5.1208,5.1224,5.1259,5.1327,5.1375,5.1439,5.1506,5.1541,5.1592,5.1649,5.1733,5.1726,5.1764,5.178,5.1823,5.1895,5.1809,5.1811,5.1827,5.1997,5.2006,5.202,5.1896,5.1898,5.19,5.1994,0,5.1198,5.1315,5.134,5.1441,5.15,5.151,5.1567,5.1615,5.1644,5.1698,5.1729,5.179,5.1774,5.1798,5.1841,5.1877,5.193,5.187,5.1951,5.1954,5.194,5.2037,5.2046,5.2132,5.2006,5.2008,5.2009,0,5.1306,5.1363,5.1469,5.1533,5.1558,5.1609,5.1674,5.1725,5.178,5.1799,5.1843,5.1855,5.1924,5.1894,5.1991,5.195,5.1984,5.2007,5.2011,5.2022,5.1987,5.2054,5.2159,5.2174,5.2029,5.2027,5.2026,0,5.1354,5.1455,5.1534,5.1563,5.1637,5.1674,5.1706,5.176,5.1799,5.1856,5.1883,5.1945,5.1981,5.203,5.206,5.2034,5.2156,5.2127,5.2175,5.2174,5.2202,5.2201,5.2318,5.2218,5.2218,5.2218,5.2218,0,5.1441,5.1507,5.1557,5.1605,5.168,5.1709,5.1782,5.1815,5.1863,5.1919,5.193,5.1982,5.2017,5.2074,5.2097,5.2176,5.2191,5.2209,5.2215,5.221,5.2208,5.2235,5.2232,5.2221,5.2221,5.222,5.2219,0,5.1508,5.1543,5.163,5.1694,5.1712,5.1765,5.182,5.1868,5.1897,5.1968,5.1986,5.2032,5.2101,5.2135,5.2219,5.2235,5.2325,5.2325,5.2307,5.231,5.2358,5.2354,5.25,5.2522,5.2404,5.2405,5.2406,0,5.1563,5.1615,5.1685,5.1724,5.1758,5.182,5.1861,5.1892,5.1934,5.2003,5.2044,5.2113,5.217,5.2279,5.232,5.2386,5.239,5.2436,5.24,5.2395,5.2396,5.2394,5.2401,5.2444,5.2445,5.2446,5.2447,0,5.1659,5.1675,5.1734,5.1801,5.185,5.1904,5.1956,5.1987,5.2027,5.2074,5.2145,5.219,5.2277,5.2347,5.2416,5.245,5.2456,5.2458,5.2473,5.247,5.2459,5.247,5.2329,5.2455,5.2454,5.2453,5.2453,5.2453,5.1725,5.1772,5.1831,5.1898,5.1941,5.199,5.204,5.2076,5.2136,5.2211,5.2225,5.2301,5.2358,5.2451,5.2487,5.2548,5.2538,5.2559,5.2565,5.2571,5.2575,5.2447,5.256,5.256,5.256,5.2559,5.2559,0,5.1825,5.1863,5.1924,5.1999,5.2052,5.2053,5.2112,5.2157,5.2224,5.2276,5.2333,5.2416,5.2484,5.2532,5.2601,5.2641,5.2646,5.2659,5.2658,5.2666,5.2578,5.256,5.2654,5.2654,5.2654,5.2654,5.2654,5.2654,5.1883,5.1966,5.1989,5.2093,5.2131,5.2207,5.2241,5.2288,5.233,5.2423,5.248,5.2511,5.2562,5.2636,5.2699,5.2711,5.2738,5.2751,5.2764,5.2682,5.2672,5.2663,5.2646,5.2756,5.2756,5.2847,5.2848,5.2849]}]]